Location: Home
(42.5358°N, 72.7383°W)
Time: 16:04:30
(UTC-04:00)

Kosmos-337 - Pass Details

Date: 03 July 2022
Orbit: 1467 x 1552 km, 74.0° (Epoch: 18 August)

Event Time Altitude Azimuth Distance (km) Brightness Sun altitude
Rises 03:02:40 0° 335° (NNW) 4,732 ? -18.2°
Reaches altitude 10° 03:05:47 10° 330° (NNW) 3,742 ? -17.9°
Maximum altitude 03:14:19 46° 261° (W) 1,972 ? -17.1°
Enters shadow 03:20:14 21° 200° (SSW) 2,946 ? -16.5°
